Location: Arroyo de Fuente Vieja
(40.4902°N, 4.1175°W)
Time: 21:57:57
(UTC+00:00)

Okean O Rocket - Pass Details

Date: 18 April 2024
Orbit: 619 x 639 km, 98.1° (Epoch: 23 May)

Event Time Altitude Azimuth Distance (km) Brightness Sun altitude
Exits shadow 21:01:56 11° 205° (SSW) 1,944 4.0 -21.6°
Maximum altitude 21:05:32 28° 264° (W) 1,177 3.4 -22.2°
Drops below altitude 10° 21:09:20 10° 324° (NW) 2,014 5.2 -22.7°
Sets 21:11:48 0° 336° (NNW) 2,930 6.1 -23.1°
